| time (UTC) | temp F | wind direction | speed MPH | gust MPH | rain 1hr in | rain 24hr in | rain mn in | humidity % | barometer mb |
| 20260507170210 | 53 | 360 | 0.0 | 0.0 | 0.00 | 0.00 | 0.24 | 73 | |
| 20260507163209 | 53 | 360 | 0.0 | 0.0 | 0.00 | 0.00 | 0.24 | 73 | |
| 20260507160211 | 54 | 360 | 0.0 | 0.0 | 0.00 | 0.00 | 0.24 | 74 | |
| 20260507153210 | 54 | 360 | 0.0 | 0.0 | 0.00 | 0.00 | 0.24 | 72 | |
| 20260507150210 | 55 | 360 | 0.0 | 0.0 | 0.00 | 0.00 | 0.24 | 69 | |
| 20260507143212 | 54 | 360 | 0.0 | 0.0 | 0.00 | 0.00 | 0.24 | 70 | |
| 20260507140210 | 53 | 360 | 0.0 | 0.0 | 0.00 | 0.00 | 0.24 | 75 | |
| 20260507133210 | 52 | 360 | 0.0 | 0.0 | 0.00 | 0.00 | 0.24 | 78 | |
| 20260507130210 | 52 | 360 | 0.0 | 0.0 | 0.00 | 0.00 | 0.24 | 77 | |
| 20260507123210 | 51 | 360 | 0.0 | 0.0 | 0.00 | 0.00 | 0.24 | 83 | |
| 20260507120211 | 49 | 360 | 0.0 | 0.0 | 0.00 | 0.00 | 0.24 | 85 | |
| 20260507113210 | 51 | 360 | 0.0 | 0.0 | 0.00 | 0.00 | 0.24 | 86 | |
| 20260507110210 | 50 | 360 | 0.0 | 0.0 | 0.00 | 0.00 | 0.24 | 86 | |
| 20260507103216 | 49 | 360 | 0.0 | 0.0 | 0.00 | 0.00 | 0.24 | 87 | |
| 20260507100212 | 47 | 360 | 0.0 | 0.0 | 0.00 | 0.00 | 0.24 | 89 | |
| 20260507093211 | 47 | 360 | 0.0 | 0.0 | 0.00 | 0.00 | 0.24 | 88 | |
| 20260507090211 | 47 | 360 | 0.0 | 0.0 | 0.00 | 0.00 | 0.24 | 89 | |
| 20260507083212 | 49 | 360 | 0.0 | 0.0 | 0.00 | 0.00 | 0.24 | 86 | |
| 20260507080211 | 49 | 360 | 0.0 | 0.0 | 0.00 | 0.00 | 0.24 | 88 | |
| 20260507073212 | 48 | 360 | 0.0 | 0.0 | 0.00 | 0.00 | 0.24 | 92 | |
| 20260507070212 | 47 | 360 | 0.0 | 0.0 | 0.00 | 0.00 | 0.24 | 94 | |
| 20260507063211 | 45 | 360 | 0.0 | 0.0 | 0.00 | 0.00 | 0.24 | 96 | |
| 20260507060211 | 44 | 360 | 0.0 | 0.0 | 0.00 | 0.00 | 0.24 | 95 | |
| 20260507053211 | 44 | 360 | 0.0 | 0.0 | 0.00 | 0.00 | 0.24 | 96 | |
| 20260507050213 | 43 | 360 | 0.0 | 0.0 | 0.00 | 0.00 | 0.21 | 95 | |
| 20260507043211 | 43 | 360 | 0.0 | 0.0 | 0.00 | 0.00 | 0.20 | 95 | |
| 20260507040216 | 43 | 360 | 0.0 | 0.0 | 0.00 | 0.00 | 0.18 | 95 | |
| 20260507033211 | 42 | 360 | 0.0 | 0.0 | 0.00 | 0.00 | 0.17 | 95 | |
| 20260507030211 | 42 | 360 | 0.0 | 0.0 | 0.00 | 0.00 | 0.17 | 95 | |
| 20260507023211 | 42 | 360 | 0.0 | 0.0 | 0.00 | 0.00 | 0.17 | 94 | |
| 20260507020211 | 42 | 360 | 0.0 | 0.0 | 0.00 | 0.00 | 0.17 | 94 | |
| 20260507013212 | 42 | 360 | 0.0 | 0.0 | 0.00 | 0.00 | 0.17 | 94 | |
| 20260507010211 | 42 | 360 | 0.0 | 0.0 | 0.00 | 0.00 | 0.17 | 94 | |
| 20260507003209 | 42 | 360 | 0.0 | 0.0 | 0.00 | 0.00 | 0.17 | 93 | |
| 20260507000209 | 42 | 360 | 0.0 | 0.0 | 0.00 | 0.00 | 0.17 | 94 | |
| 20260506233209 | 43 | 360 | 0.0 | 0.0 | 0.00 | 0.00 | 0.17 | 94 | |
| 20260506230209 | 43 | 360 | 0.0 | 0.0 | 0.00 | 0.00 | 0.17 | 93 | |
| 20260506223209 | 43 | 360 | 0.0 | 0.0 | 0.00 | 0.00 | 0.17 | 94 | |
| 20260506220209 | 44 | 360 | 0.0 | 0.0 | 0.00 | 0.00 | 0.00 | 94 | |
| 20260506213209 | 44 | 360 | 0.0 | 0.0 | 0.00 | 0.00 | 0.17 | 93 | |
| 20260506210210 | 44 | 360 | 0.0 | 0.0 | 0.00 | 0.00 | 0.17 | 92 | |
| 20260506203210 | 45 | 360 | 0.0 | 0.0 | 0.00 | 0.00 | 0.17 | 93 | |
| 20260506200210 | 45 | 360 | 0.0 | 0.0 | 0.00 | 0.00 | 0.17 | 93 | |
| 20260506193215 | 45 | 360 | 0.0 | 0.0 | 0.00 | 0.00 | 0.17 | 92 | |
| 20260506190211 | 46 | 360 | 0.0 | 0.0 | 0.00 | 0.00 | 0.17 | 92 | |
| 20260506183209 | 47 | 360 | 0.0 | 0.0 | 0.00 | 0.00 | 0.17 | 92 | |
| 20260506180216 | 47 | 360 | 0.0 | 0.0 | 0.00 | 0.00 | 0.17 | 92 | |
| 20260506173210 | 47 | 360 | 0.0 | 0.0 | 0.00 | 0.00 | 0.17 | 92 |